TimeCST,TemperatureF,Dew PointF,Humidity,Sea Level PressureIn,VisibilityMPH,Wind Direction,Wind SpeedMPH,Gust SpeedMPH,PrecipitationIn,Events,Conditions,WindDirDegrees,DateUTC
12:53 AM,12.9,6.1,74,29.86,10.0,West,11.5,25.3,0.00,,Overcast,280,2012-12-04 06:53:00
1:53 AM,12.0,3.9,70,29.89,10.0,West,13.8,25.3,N/A,,Overcast,280,2012-12-04 07:53:00
2:37 AM,10.4,3.2,73,29.87,10.0,West,8.1,19.6,N/A,,Mostly Cloudy,280,2012-12-04 08:37:00
2:53 AM,10.9,3.9,73,29.94,10.0,West,10.4,20.7,N/A,,Overcast,270,2012-12-04 08:53:00
3:53 AM,10.0,3.9,76,29.96,10.0,West,8.1,20.7,N/A,,Overcast,270,2012-12-04 09:53:00
4:53 AM,10.0,3.9,76,29.99,10.0,West,10.4,24.2,N/A,,Overcast,280,2012-12-04 10:53:00
5:53 AM,9.0,3.0,77,30.02,10.0,WNW,9.2,21.9,N/A,,Mostly Cloudy,290,2012-12-04 11:53:00
6:53 AM,10.0,3.0,73,30.06,10.0,West,8.1,-,N/A,,Overcast,280,2012-12-04 12:53:00
7:53 AM,10.0,5.0,80,30.10,7.0,WNW,8.1,21.9,N/A,,Overcast,290,2012-12-04 13:53:00
8:53 AM,10.9,6.1,81,30.12,4.0,WNW,8.1,18.4,N/A,,Haze,290,2012-12-04 14:53:00
9:53 AM,12.9,6.1,74,30.16,8.0,WNW,9.2,18.4,N/A,,Overcast,300,2012-12-04 15:53:00
10:53 AM,14.0,8.1,77,30.20,7.0,WNW,9.2,18.4,N/A,,Overcast,290,2012-12-04 16:53:00
11:53 AM,16.0,8.1,71,30.23,10.0,WNW,12.7,20.7,N/A,,Overcast,300,2012-12-04 17:53:00
12:53 PM,17.1,9.0,71,30.25,10.0,WNW,11.5,21.9,N/A,,Mostly Cloudy,300,2012-12-04 18:53:00
1:53 PM,19.0,10.0,68,30.28,10.0,NW,11.5,17.3,N/A,,Overcast,310,2012-12-04 19:53:00
2:53 PM,19.0,10.0,68,30.30,10.0,NNW,10.4,-,N/A,,Mostly Cloudy,330,2012-12-04 20:53:00
3:53 PM,18.0,10.0,71,30.34,10.0,NW,10.4,-,N/A,,Overcast,320,2012-12-04 21:53:00
4:53 PM,17.1,10.9,77,30.36,6.0,Variable,4.6,-,0.00,Snow,Light Snow,0,2012-12-04 22:53:00
5:53 PM,16.0,10.9,81,30.39,4.0,NW,3.5,-,0.00,Snow,Light Snow,310,2012-12-04 23:53:00
6:20 PM,15.8,12.2,86,30.32,2.5,NW,5.8,-,0.00,Snow,Light Snow,310,2012-12-05 00:20:00
6:30 PM,15.8,12.2,86,30.32,3.0,NW,5.8,-,0.00,Snow,Light Snow,310,2012-12-05 00:30:00
6:53 PM,16.0,12.0,84,30.42,9.0,WNW,3.5,-,0.00,,Overcast,290,2012-12-05 00:53:00
7:53 PM,16.0,12.0,84,30.41,10.0,WNW,3.5,-,N/A,,Overcast,300,2012-12-05 01:53:00
8:53 PM,15.1,10.9,84,30.40,10.0,Calm,Calm,-,N/A,,Mostly Cloudy,0,2012-12-05 02:53:00
9:01 PM,15.8,10.4,79,30.31,10.0,NW,3.5,-,N/A,,Scattered Clouds,320,2012-12-05 03:01:00
9:16 PM,14.0,10.4,86,30.32,10.0,Calm,Calm,-,N/A,,Mostly Cloudy,0,2012-12-05 03:16:00
9:53 PM,12.9,10.9,92,30.41,10.0,SW,3.5,-,N/A,,Overcast,230,2012-12-05 03:53:00
10:53 PM,14.0,10.9,88,30.44,10.0,SW,3.5,-,N/A,,Overcast,230,2012-12-05 04:53:00
11:39 PM,12.2,10.4,92,30.36,10.0,Calm,Calm,-,N/A,,Scattered Clouds,0,2012-12-05 05:39:00
11:53 PM,12.0,9.0,88,30.45,10.0,SW,3.5,-,N/A,,Mostly Cloudy,220,2012-12-05 05:53:00